Regional Weather Roundup
Issued by NWS

Home | Current Version | Previous Version | Graphics & Text | Print | Product List | Glossary On
Versions: 1 2 3 4 5 6 7 8 9 10 11 12 13 14 15 16 17 18 19 20 21 22 23 24 25 26 27 28 29 30 31 32 33 34 35 36 37 38 39 40 41 42 43 44 45 46 47 48 49 50
000
ASUS43 KBIS 200810
RWRND

NORTH DAKOTA REGIONAL WEATHER ROUNDUP
NATIONAL WEATHER SERVICE BISMARCK ND
300 AM CDT SUN AUG 20 2017

NOTE: "FAIR" INDICATES FEW OR NO CLOUDS BELOW 12,000 FEET WITH NO
SIGNIFICANT WEATHER AND/OR OBSTRUCTIONS TO VISIBILITY.


NDZ001>003-009>011-017-200900-
NORTHWEST NORTH DAKOTA

CITY           SKY/WX    TMP DP  RH WIND       PRES   REMARKS
WILLISTON      CLOUDY    53  41  63 N7        29.99S
MINOT          PTCLDY    60  42  51 W12       29.94R
MINOT AFB      PTCLDY    56  41  57 NW9       29.92R
$$

NDZ018>021-031>035-040>046-200900-
SOUTHWEST NORTH DAKOTA

CITY           SKY/WX    TMP DP  RH WIND       PRES   REMARKS
BISMARCK       PTCLDY    64  48  56 NW7       29.94R
DICKINSON      MOCLDY    56  44  64 NW6       30.00R
GARRISON         N/A     54  46  74 N12       29.95R
HETTINGER ARPT CLOUDY    57  46  66 N8        30.03R
$$

NDZ004>008-012>016-024-026-027-054-200900-
NORTHEAST NORTH DAKOTA

CITY           SKY/WX    TMP DP  RH WIND       PRES   REMARKS
GRAND FORKS    CLEAR     67  58  72 NW12      29.77R
GRND FRKS AFB  CLEAR     65  54  65 NW13      29.79R
DEVILS LAKE    CLEAR     61  51  70 NW12      29.87R
$$

NDZ022-023-025-028>030-036>039-047>053-200900-
SOUTHEAST NORTH DAKOTA

CITY           SKY/WX    TMP DP  RH WIND       PRES   REMARKS
FARGO          MOCLDY    68  64  87 W12       29.78R
JAMESTOWN      CLEAR     63  55  75 NW12      29.86R
$$





USA.gov is the U.S. government's official web portal to all federal, state and local government web resources and services.